Regional Weather Roundup
Issued by NWS Little Rock, AR

Current Version | Previous Version | Text Only | Print | Product List | Glossary On
Versions: 1 2 3 4 5 6 7 8 9 10 11 12 13 14 15 16 17 18 19 20 21 22 23 24 25 26 27 28 29 30 31 32 33 34 35 36 37 38 39 40 41 42 43 44 45 46 47 48 49 50
000
ASUS44 KLZK 280105
RWRLZK

WEATHER ROUNDUP FOR ARKANSAS
NATIONAL WEATHER SERVICE LITTLE ROCK AR
800 PM CDT THU AUG 27 2015

NOTE: "FAIR" INDICATES FEW OR NO CLOUDS BELOW 12,000 FEET WITH NO
SIGNIFICANT WEATHER AND/OR OBSTRUCTIONS TO VISIBILITY.

ARZ001-003-010-029-280200-
NORTHWEST ARKANSAS

CITY           SKY/WX    TMP DP  RH WIND       PRES   REMARKS
FAYETTEVILLE   PTCLDY    71  65  81 S9        30.05F
FORT SMITH     CLEAR     74  65  73 E8        30.02F
BENTONVILLE    PTCLDY    73  63  68 SW8       30.05F
ROGERS         PTCLDY    74  67  78 SE7       30.05F
SILOAM SPGS    MOCLDY    72  61  68 S7        30.04S
HIGHFILL       PTCLDY    72  66  81 S6        30.05S
SPRINGDALE     PTCLDY    75  66  73 SW8       30.07F
$$

ARZ004-005-016-280200-
NORTH CENTRAL ARKANSAS

CITY           SKY/WX    TMP DP  RH WIND       PRES   REMARKS
BATESVILLE     CLOUDY    72  61  68 CALM      30.07S
FLIPPIN        MOCLDY    72  59  64 SE3       30.02F
MTN HOME       CLOUDY    71  61  70 SE6       30.03F
$$

ARZ040-041-280200-
WEST CENTRAL ARKANSAS

CITY           SKY/WX    TMP DP  RH WIND       PRES   REMARKS
MENA           PTCLDY    77  68  73 CALM      30.06S
MOUNT IDA      PTCLDY    72  64  76 CALM      30.03S
$$

ARZ009-017-025-026-028-280200-
NORTHEAST ARKANSAS

CITY           SKY/WX    TMP DP  RH WIND       PRES   REMARKS
JONESBORO      PTCLDY    67  62  84 NE3       30.05F
NEWPORT        CLOUDY    73  64  73 NE3       30.07S
WALNUT RIDGE   MOCLDY    72  61  68 CALM      30.06S
BLYTHEVILLE    CLEAR     70  63  78 NE6       30.05F
$$

ARZ022-023-033-042-044-280200-
CENTRAL ARKANSAS

CITY           SKY/WX    TMP DP  RH WIND       PRES   REMARKS
LITTLE ROCK    MOCLDY    74  59  59 E6        30.04S
N LITTLE ROCK  MOCLDY    73  62  68 E7        30.04S
JACKSONVILLE   MOCLDY    74  60  63 NE6       30.05R
SEARCY         MOCLDY    74  61  63 E5        30.06S
HOT SPRINGS    PTCLDY    77  62  59 E5        30.04S
RUSSELLVILLE   MOCLDY    73  67  81 CALM      30.02F
$$

ARZ036-280200-
EAST ARKANSAS

CITY           SKY/WX    TMP DP  RH WIND       PRES   REMARKS
WEST MEMPHIS   PTCLDY    72  61  68 N3        30.04S
$$

ARZ050-053-066-070-073-280200-
SOUTHWEST ARKANSAS

CITY           SKY/WX    TMP DP  RH WIND       PRES   REMARKS
ARKADELPHIA    FAIR      75  70  85 CALM      30.03S
CAMDEN         PTCLDY    75  63  64 E3        30.02S
TEXARKANA      PTCLDY    76  64  66 E3        30.02F
EL DORADO      CLEAR     74  64  71 NE3       30.03S
DE QUEEN       CLEAR     77  65  66 E3        30.00F
$$

ARZ056-057-069-280200-
SOUTHEAST ARKANSAS

CITY           SKY/WX    TMP DP  RH WIND       PRES   REMARKS
PINE BLUFF     PTCLDY    71  62  73 E5        30.03F
STUTTGART      PTCLDY    72  61  68 NE6       30.04S
MONTICELLO     PTCLDY    75  60  59 N3        30.03S

$$




USA.gov is the U.S. government's official web portal to all federal, state and local government web resources and services.